Showing default

O3B FM7, 40080

Orbit data source: Space-Track

O3B FM7, 40080 is a payload satellite owned by O3B (JE) that was launched on Thu, 10 Jul 2014 UTC via a SOYUZ-ST-B launch vehicle from the French Guiana (FRGUI). Payload-class satellites include a variety of spacecraft equipped with specific instruments for various scientific and technological missions. These include communications satellites like Starlink; space stations such as the ISS; scientific satellites like the Hubble; Earth observation satellites from companies like Planet Labs, Umbra, and HawkEye 360; GPS; miniature CubeSats for education and research; and military/defense satellites.

Loading next visibility...
Identifier
40080, 2014-038B
Orbit
Active
Country
Flag of UnknownUnknown / O3B
Related business
Manufacturer
Thales Alenia
Mission
Operational Commercial Communications
Bus & Motor
PRISMA?, LS-400 AOCS?
Mass
700 kg wet, ~500 kg dry
Launch date (UTC)
2014-07-10 (12 years ago)
Launch vehicle
SOYUZ-ST-B
Launch site
French Guiana (FRGUI)
Object type
Payload
Rocket body
Debris
Shape & HBR
Trap Box + 2 Pan, 6.0 m
Radar Cross Section
21.980 m², Large (>1 m²)

Expand to show TLE details & history
Last TLE update: 19 hours ago

TLE from 19 hours ago
0 O3B FM7
1 40080U 14038B   26235.41504008 -.00000026  00000-0  00000-0 0  9997
2 40080   0.0432 345.5576 0003196 128.5360 245.9388  5.00115745221240
Epoch: 2026-08-23T09:57Z
TLE epoch observation values (Epoch: 2026-08-23T09:57:39.462Z)
Latitude
0.00652°
Longitude
-121.12585°
Altitude
8,066.253 km
Speed
5.254 km/s
True Right ascension
23h 59m 59s
True Declination
0° 00' 23"
Sunlit
Object was in daylight at epoch
Visualization orbit readout
Latitude
Unknown
Longitude
Unknown
Altitude
Unknown
Speed
Unknown
Apparent Right ascension
Unknown
Apparent Declination
Unknown
Sunlit
N/A
Visualization observer readout
Local Sidereal Time
20:02:47
Azimuth
Unknown
Elevation
Unknown
Doppler factor
Unknown
Orbital elements
Apogee altitude
8,073.561 km
Perigee altitude
8,064.327 km
Semi-major axis
14,447.081 km
Eccentricity
0.00032
Inclination
0.0432°
RAAN
345.5576°
Arg. of periapsis
128.536°
True anomaly
245.90536°
Mean anomaly
245.9388°
Eccentric anomaly
245.92208°
Mean motion
1.24989 °/min
Orbital period
288.02 mins
BSTAR
0
Loading maneuver chart data...
Computing Atmospheric mass density...
Loading historical data...
Loading historical data...
Loading historical data...
Loading historical data...
Loading historical data...
Loading historical data...
Loading historical data...
Other satellites on launch #38 in the year 2014 (2014-07-10 UTC)

Documentation

Showing up to 5 results
|